www.pogodaiklimat.ru

Погода и климат >> Архив погоды >> Россия >> Хабаровский край >> Троицкое


ПОГОДА в Троицком

  • Прогноз погоды в Троицком
  • Монитор погоды в Троицком

АРХИВ ПОГОДЫ в Троицком

Время (UTC), дата Ветер
(напр.,м/с)
 
Видим.   Явления Облачность Т
(С)
Тd
(С)
f
(%)
Тe
(С)
Тes
(С)
Комфортность P
(гПа)
Po
(гПа)
Тmin
(С)
Tmax
(С)
R
(мм)
R24
(мм)
S
(см)
06 15.04 Ю 5 50 км 3/3 600 м
[Cu hum]
+14.3 -15.8 11 +13 +16 1005.1 1001.1
09 15.04 ЮЗ 2 50 км 9/0
[Ac lent]
+12.0 -14.4 14 +12 +12 1005.1 1001.1 +15.1
12 15.04 Ю 3 50 км 10/0
[Ac As]
+6.3 -11.1 28 +4 +4 1006.0 1001.9
15 15.04 Ю 4 50 км 10/0
[Ac und]
+5.6 -11.2 29 +3 +3 1005.7 1001.6
18 15.04 Ю 6 50 км 4/0
[Ac lent]
+5.7 -10.8 29 +2 +2 1004.7 1000.6
21 15.04 Ю 5 50 км 3/0
[Ci fib]
+7.0 -9.1 31 +4 +4 1003.9 999.9 +5.0
00 16.04 Ю 4 50 км 4/0
[Ci fib]
+12.9 -6.5 25 +12 +17 1003.4 999.4
03 16.04 ЮЗ 5
{11}
50 км 4/0
[Ci fib]
+19.1 -5.5 18 +19 +25 1000.5 996.7
06 16.04 ЮЗ 6-10
{13}
50 км 4/0
[Ci fib]
+21.8 -7.7 13 +20 +23 997.1 993.3
09 16.04 ЮЗ 4
{13}
50 км 8/0
[Ac trans Ci sp]
+19.3 -7.8 15 +19 +19 995.6 991.8 +22.0
12 16.04 Ю 5 50 км 8/0
[Ci fib]
+15.4 -6.8 21 +14 +14 995.2 991.3
15 16.04 ЮЗ 6-12
{12}
50 км 10/0
[Ac trans Ci fib]
+16.0 -3.8 25 +15 +15 995.3 991.4
18 16.04 ЮЗ 4
{12}
50 км 10/0
[Ac trans Ci fib]
+11.1 -5.5 31 +9 +9 997.9 994.0
21 16.04 З 4 50 км 10/0
[Ac As]
+9.5 -12.5 20 +8 +8 1001.0 997.0 +9.3
00 17.04 З 2 20 км 10/0
[Ac As]
+10.0 -11.5 21 +9 +12 1003.1 999.2 +5.6
03 17.04 СЗ 3 20 км 10/0
[Cs]
+13.5 -10.8 17 +13 +22 1002.8 998.9
06 17.04 СЗ 1 20 км 10/0
[Cs]
+13.9 -10.6 17 +15 +22 1001.5 997.6
09 17.04 В 2 20 км 10/0
[Ac As]
+9.5 -7.8 29 +9 +9 1000.5 996.5 +13.9
12 17.04 СВ 2 20 км 10/0
[Ac As]
+5.3 -4.8 48 +3 +3 999.9 995.9
15 17.04 СВ 2 20 км 3/0
[Ci fib]
+2.5 -5.2 57 -0 -0 998.3 994.2
18 17.04 СВ 4
{10}
20 км 10/0
[Ac As]
+2.3 -1.8 74 -2 -2 996.6 992.5
21 17.04 СВ 6 50 км 4/3 600 м
[Sc Ac trans]
+1.6 -1.7 79 -4 -4 995.7 991.6 +0.9
00 18.04 СВ 4
{11}
50 км 10/0
[Ac As]
+4.8 -1.2 65 +1 +3 995.2 991.2
03 18.04 С 1 50 км 10/0
[Cs]
+10.3 -1.2 45 +10 +24 опасность
простуды
994.6 990.6
06 18.04 З 14 10 км 10/10 1500 м
[Cu med, cong Ac lent]
+5.5 +0.9 72 -1 -1 1007.1 1002.5
09 18.04 ЮЗ 4 20 км слаб. ливневой дождь 10/10
[Cb cap]
+6.4 +2.3 75 +3 +3 998.7 994.7 +10.4 0.4
12 18.04 ЮЗ 3 10 км слаб. ливневой дождь 10/10
[Cb cap]
+1.1 -0.5 89 -3 -3 1001.7 997.6
15 18.04 Ю 4 2000 м слаб. ливневой снег 10/10
[Cb cap]
-0.3 -1.4 92 -6 -6 1002.0 997.8
18 18.04 Ю 2 2000 м слаб. ливневой снег 10/10
[Cb cap]
-1.1 -2.2 92 -5 -5 1001.4 997.3
21 18.04 Ю 3 2000 м слаб. ливневой снег 10/10
[Cb cap]
-0.7 -1.8 92 -6 -6 1001.7 997.6 -1.1 97
00 19.04 Ю 3 10 км слаб. ливневой дождь со снегом 10/10 600 м
[Cb calv]
-0.0 -1.8 88 -5 -5 1003.8 999.7
03 19.04 Ю 3 20 км {ливн. осадки} 10/10 600 м
[Cb cap]
+1.1 -2.9 75 -3 -3 1005.5 1001.3
06 19.04 штиль 0 20 км {ливн. осадки} 10/10 600 м
[Cb cap]
+2.0 -1.7 76 +1 +1 1006.6 1002.5
09 19.04 С 1 50 км {ливн. осадки} 10/10 600 м
[Cb cap]
+1.8 -2.7 72 0 0 1008.3 1004.1 +2.9 2
12 19.04 С 1 10 км слаб. ливневой снег 10/10 600 м
[Cb cap]
0.0 -2.0 86 -2 -2 1009.9 1005.7
15 19.04 ЮЗ 1 10 км {ливн. осадки} 10/10 600 м
[Cb cap]
-0.3 -1.5 92 -2 -2 1009.9 1005.8
18 19.04 Ю 1 10 км {ливн. осадки} 10/10 600 м
[Cb cap]
-1.0 -2.1 92 -3 -3 1011.1 1006.9
21 19.04 Ю 2 20 км 10/10 600 м
[Sc]
-0.9 -2.0 92 -5 -5 1011.7 1007.5 -1.6 0.5 1
00 20.04 Ю 2 20 км 10/10 600 м
[Cb cap]
+1.5 -0.9 84 -2 -2 1012.2 1008.0
03 20.04 Ю 2 50 км 10/10 600 м
[Cb cap]
+5.0 -3.1 56 +3 +3 1011.6 1007.5
06 20.04 ЮВ 3 50 км 10/10 600 м
[Cb cap]
+6.4 -1.5 57 +4 +4 1009.4 1005.4
09 20.04 Ю 5 50 км 10/10 600 м
[Cb cap]
+5.4 -2.8 55 +1 +1 1008.6 1004.5 +7.0
12 20.04 ЮВ 1 50 км 10/10 600 м
[Cb cap]
+2.8 -3.6 63 +2 +2 1008.7 1004.6
15 20.04 Ю 2 50 км 10/10 600 м
[Cb cap]
+0.7 -3.4 74 -3 -3 1007.1 1002.9
18 20.04 СВ 1 50 км 10/10 600 м
[Cb cap]
-0.9 -2.8 87 -3 -3 1006.0 1001.9
21 20.04 Ю 1 20 км 10/10 600 м
[Cb cap]
+0.3 -2.2 83 -2 -2 1005.4 1001.2 -1.1
00 21.04 В 2 20 км {ливн. осадки} 6/6 600 м
[Cb cap]
+5.0 +1.4 78 +3 +6 1004.7 1000.6
03 21.04 С 1 20 км 4/4 600 м
[Cb cap]
+8.1 +1.0 61 +8 +18 опасность
простуды
1004.7 1000.7
06 21.04 З 2 20 км {ливн. осадки} 4/4 600 м
[Cb cap]
+10.7 -1.1 44 +10 +15 1004.5 1000.5
09 21.04 СЗ 4 50 км 3/3 600 м
[Cb cap]
+9.0 -7.3 31 +7 +7 1005.5 1001.5 +12.5 0.6
12 21.04 З 2 50 км ясно +3.2 -6.8 48 +1 +1 1008.7 1004.6
15 21.04 З 2 50 км ясно -0.3 -7.2 60 -3 -3 1010.3 1006.1
18 21.04 ЮЗ 2 50 км ясно -1.5 -7.4 64 -5 -5 1010.9 1006.7
21 21.04 Ю 2 50 км ясно -1.2 -8.0 60 -5 -4 1012.1 1007.9 -3.0
00 22.04 З 2 50 км ясно +8.4 -6.8 33 +7 +16 опасность
простуды
1012.7 1008.7
03 22.04 З 4 50 км 3/3 600 м
[Cu hum]
+11.1 -9.2 23 +9 +16 1012.9 1008.9

 

Местоположение метеостанции Троицкое (Хабаровский край, Россия): широта 49.45 долгота 136.56 высота над уровнем моря 37 м.

В архиве по умолчанию представлена погода в Троицком за последнюю неделю. Архивные данные за месяц целиком и за предыдущие месяцы, начиная с января 2011 года, Вы можете получить, выбрав интересующий диапазон дат из раскрывающегося списка и нажав кнопку "Ввод!".


*Определитесь, кто Вы:
робот инопланетянин человек

Внимание! Время в таблицах - всемирное. Для получения местного времени необходимо прибавить поправку, которая равна 10 ч.

Смотрите также архив погоды в соседних городах и на ближайших метеорологических станциях:

Погода в Елабуге (Хабаровский край, Россия) (89 км)
Погода в Тивяку (Хабаровский край, Россия) (100 км)
Погода в Амурске (Хабаровский край, Россия) (101 км)
Погода в Литовко (Хабаровский край, Россия) (109 км)
Погода в Солекуль (Хабаровский край, Россия) (109 км)
Погода в Комсомольске-на-Амуре (Хабаровский край, Россия) (124 км)
Погода в Князе-Волконском (Хабаровский край, Россия) (134 км)
Погода в Хабаровске 21 км (Хабаровский край, Россия) (140 км)
Погода в Хабаровске (Хабаровский край, Россия) (149 км)
Погода в Хабаровске Агромет (Хабаровский край, Россия) (149 км)

Пояснения к столбцам:

Ветер - указаны скорость ветра в м/с - средняя за 10 мин, порывы в срок и между сроками (в фигурных скобках) и направление, откуда дует ветер: С - северный, СВ - северо-восточный, В - восточный, ЮВ - юго-восточный, Ю - южный, ЮЗ - юго-западный, З - западный, СЗ - северо-западный.
Видимость - горизонтальная дальность видимости в метрах или километрах. При видимости от 1 до 10 км при отсутствии осадков обычно наблюдается дымка, при ухудшении видимости до 1 км и менее - туман. В сухую погоду видимость может ухудшаться дымом, пылью или мглою.
Явления - указаны атмосферные явления, наблюдавшиеся в срок или в последний час перед сроком; фигурными скобками обозначены явления, наблюдавшиеся между сроками (за 1-3 часа до срока); квадратными скобками обозначены град или гололедные отложения с указанием их диаметра в мм.
Облачность - указаны через наклонную черту общая и нижняя облачность в баллах и высота нижней границы облаков в метрах; квадратными скобками обозначены формы облаков: Ci - перистые, Cs - перисто-слоистые, Cc - перисто-кучевые, Ac - высококучевые, As - высокослоистые, Sc - слоисто-кучевые, Ns - слоисто-дождевые, Cu - кучевые, Cb - кучево-дождевые. Подробнее классификацию облаков см. в Атласе облаков (PDF).
T - Температура воздуха - температура, измеренная на высоте 2 м над землей.
Td - Температура точки росы - температура, при понижении до которой содержащийся в воздухе водяной пар достигнет насыщения.
f - Относительная влажность воздуха - влажноcть воздуха, измеренная на высоте 2 м над землей.
Te - Эффективная температура - температура, которую ощущает одетый по сезону человек в тени. Характеристика душности погоды. При расчете учитывается влияние влажности воздуха и скорости ветра на теплоощущения человека.
Tes - Эффективная температура на солнце - температура, которую ощущает человек, с поправкой на солнечный нагрев. Характеристика знойности погоды. Зависит от высоты солнца над горизонтом, облачности и скорости ветра. Ночью, в пасмурную погоду, а также при ветре 12 м/с и более поправка равна нулю.
P - Атмосферное давление - приведенное к уровню моря атмосферное давление.
Po - Атмосферное давление - измеренное на уровне метеостанции атмосферное давление.
Tmin - Минимальная температура - минимум температуры воздуха на высоте 2 м над землей.
Tmax - Максимальная температура - максимум температуры воздуха на высоте 2 м над землей.
R - Количество осадков - Количество выпавших осадков за период времени, мм. При наведении курсора мыши на число - период времени, за который выпало указанное количество осадков.
R24 - Количество осадков - Количество выпавших осадков за 24 часа, мм.
S - Снежный покров - Высота снежного покрова, см. При наведении курсора мыши на число - состояние снежного покрова и степень покрытия местности в баллах.